Edenton, NC

8:19 PM EDT on June 24, 2017 (GMT -0400)
Northeastern Regional

Weather History for KEDE - December, 2012

Change the Weather History Date:

Saturday, December 1, 2012

  Actual Average Record
Temperature  
Mean Temperature 46 °F -  
Max Temperature 61 °F 57 °F 78 °F (2001)
Min Temperature 31 °F 39 °F 21 °F (1947)
Degree Days  
Heating Degree Days 19    
Moisture  
Dew Point 38 °F    
Average Humidity 80    
Maximum Humidity 100    
Minimum Humidity 44    
Precipitation  
Precipitation 0.00 in - - ()
Sea Level Pressure  
Sea Level Pressure 30.38 in    
Wind  
Wind Speed 0 mph (North)    
Max Wind Speed 0 mph    
Max Gust Speed -    
Visibility 7 miles    
Events Fog    
Averages and records for this station are not official NWS values.
T = Trace of Precipitation, MM = Missing Value Source: NWS Daily Summary

Daily Weather History Graph

Daily Weather History Graph

Search for Another Location

Airport or City:

Trip Planner

Search our weather history database for the weather conditions in past years. The results will help you decide how hot, cold, wet, or windy it might be!

Date:

Astronomy

Dec. 01, 2012 Rise Set
Actual Time 6:58 AM EST 4:52 PM EST
Civil Twilight 6:30 AM EST 5:20 PM EST
Nautical Twilight 5:58 AM EST 5:51 PM EST
Astronomical Twilight 5:28 AM EST 6:22 PM EST
Moon 7:38 PM EST (12/1) 9:11 AM EST (12/1)
Length of Visible Light 10h 49m
Length of Day
9h 53m
Waning Gibbous, 92% of the Moon is Illuminated
Dec 1
Waning Gibbous
Dec 6
Last Quarter
Dec 13
New
Dec 20
First Quarter
Dec 28
Full

Hourly Weather History & Observations

Time (EST) Temp. Dew Point Humidity Pressure Visibility Wind Dir Wind Speed Gust Speed Precip Events Conditions
12:15 AM 35.6 °F 34.7 °F 97% 30.35 in 2.5 mi Calm Calm - N/A   Clear
12:35 AM 34.9 °F 34.2 °F 97% 30.35 in 1.2 mi Calm Calm - N/A   Mist
12:55 AM 34.7 °F 33.8 °F 97% 30.35 in 1.2 mi Calm Calm - N/A   Mist
1:15 AM 34.2 °F 33.4 °F 97% 30.35 in 1.8 mi Calm Calm - N/A   Mist
1:35 AM 33.3 °F 32.4 °F 96% 30.36 in 3.0 mi Calm Calm - N/A   Clear
1:55 AM 32.7 °F 32.2 °F 98% 30.36 in 5.0 mi Calm Calm - N/A   Clear
2:15 AM 33.1 °F 32.4 °F 97% 30.35 in 2.0 mi Calm Calm - N/A   Clear
2:35 AM 33.1 °F 32.2 °F 96% 30.35 in 3.0 mi Calm Calm - N/A   Clear
2:55 AM 32.5 °F 32.0 °F 98% 30.36 in 5.0 mi Calm Calm - N/A   Clear
3:15 AM 32.9 °F 32.2 °F 97% 30.36 in 4.0 mi Calm Calm - N/A   Clear
3:35 AM 32.9 °F 32.0 °F 96% 30.35 in 10.0 mi Calm Calm - N/A   Clear
3:55 AM 32.4 °F 31.8 °F 98% 30.35 in 5.0 mi Calm Calm - N/A   Clear
4:15 AM 32.9 °F 32.0 °F 96% 30.35 in 5.0 mi Calm Calm - N/A   Clear
4:35 AM 32.4 °F 32.0 °F 99% 30.35 in 4.0 mi Calm Calm - N/A   Clear
4:55 AM 32.7 °F 32.0 °F 97% 30.35 in 0.5 mi Calm Calm - N/A Fog Fog
5:15 AM 32.0 °F 31.8 °F 99% 30.36 in 0.8 mi Calm Calm - N/A   Overcast
5:35 AM 32.4 °F 31.8 °F 98% 30.36 in 5.0 mi Calm Calm - N/A   Mostly Cloudy
5:55 AM 32.5 °F 32.0 °F 98% 30.37 in 5.0 mi Calm Calm - N/A   Scattered Clouds
6:15 AM 32.0 °F 31.1 °F 96% 30.37 in 3.0 mi Calm Calm - N/A   Mostly Cloudy
6:35 AM 32.4 °F 32.0 °F 99% 30.37 in 4.0 mi Calm Calm - N/A   Mostly Cloudy
6:55 AM 32.2 °F 32.0 °F 99% 30.38 in 0.2 mi Calm Calm - N/A Fog Fog
7:15 AM 31.8 °F 31.3 °F 98% 30.38 in 0.2 mi Calm Calm - N/A Fog Fog
7:35 AM 32.0 °F 31.8 °F 99% 30.39 in 0.2 mi Calm Calm - N/A Fog Fog
7:55 AM 32.2 °F 32.0 °F 99% 30.39 in 0.2 mi Calm Calm - N/A Fog Fog
8:15 AM 34.3 °F 34.2 °F 99% 30.40 in 1.0 mi Calm Calm - N/A   Overcast
8:35 AM 40.1 °F 39.9 °F 99% 30.41 in 2.5 mi Calm Calm - N/A   Scattered Clouds
8:55 AM 44.6 °F 44.6 °F 100% 30.41 in 4.0 mi Calm Calm - N/A   Clear
9:15 AM 46.9 °F 46.8 °F 99% 30.41 in 7.0 mi Calm Calm - N/A   Clear
9:35 AM 49.3 °F 48.2 °F 96% 30.42 in 7.0 mi Calm Calm - N/A   Clear
9:55 AM 51.8 °F 44.4 °F 76% 30.42 in 10.0 mi Calm Calm - N/A   Clear
10:15 AM 53.8 °F 45.3 °F 73% 30.43 in 10.0 mi Calm Calm - N/A   Clear
10:35 AM 54.7 °F 45.0 °F 70% 30.42 in 10.0 mi Calm Calm - N/A   Clear
10:55 AM 56.3 °F 45.5 °F 67% 30.42 in 10.0 mi Calm Calm - N/A   Clear
11:15 AM 55.9 °F 45.9 °F 69% 30.41 in 10.0 mi Calm Calm - N/A   Clear
11:35 AM 58.6 °F 46.4 °F 64% 30.39 in 10.0 mi Calm Calm - N/A   Clear
11:55 AM 59.5 °F 44.8 °F 58% 30.38 in 10.0 mi Calm Calm - N/A   Clear
12:15 PM 59.4 °F 41.5 °F 52% 30.38 in 10.0 mi Calm Calm - N/A   Clear
12:35 PM 59.4 °F 41.0 °F 51% 30.37 in 10.0 mi Calm Calm - N/A   Clear
12:55 PM 59.7 °F 38.8 °F 46% 30.37 in 10.0 mi Calm Calm - N/A   Clear
1:15 PM 60.1 °F 39.0 °F 46% 30.36 in 10.0 mi Calm Calm - N/A   Clear
1:35 PM 60.3 °F 38.8 °F 45% 30.35 in 10.0 mi Calm Calm - N/A   Clear
1:55 PM 60.8 °F 38.8 °F 44% 30.36 in 10.0 mi Calm Calm - N/A   Clear
2:15 PM 61.0 °F 38.8 °F 44% 30.36 in 10.0 mi Calm Calm - N/A   Clear
2:35 PM 61.5 °F 39.7 °F 45% 30.35 in 10.0 mi Calm Calm - N/A   Clear
2:55 PM 61.7 °F 40.6 °F 46% 30.35 in 10.0 mi Calm Calm - N/A   Clear
3:15 PM 61.5 °F 41.0 °F 47% 30.34 in 10.0 mi Calm Calm - N/A   Clear
3:35 PM 60.8 °F 41.4 °F 49% 30.35 in 4.0 mi Calm Calm - N/A   Haze
3:55 PM 59.4 °F 41.2 °F 51% 30.35 in 10.0 mi Calm Calm - N/A   Clear
4:15 PM 57.4 °F 40.8 °F 54% 30.35 in 10.0 mi Calm Calm - N/A   Clear
4:35 PM 55.8 °F 40.5 °F 56% 30.36 in 10.0 mi Calm Calm - N/A   Clear
4:55 PM 54.7 °F 40.3 °F 58% 30.35 in 10.0 mi Calm Calm - N/A   Clear
5:15 PM 52.7 °F 40.1 °F 62% 30.36 in 10.0 mi Calm Calm - N/A   Clear
5:35 PM 50.9 °F 39.7 °F 66% 30.36 in 10.0 mi Calm Calm - N/A   Clear
5:55 PM 49.5 °F 39.7 °F 69% 30.36 in 10.0 mi Calm Calm - N/A   Clear
6:15 PM 48.0 °F 39.9 °F 74% 30.37 in 10.0 mi Calm Calm - N/A   Clear
6:35 PM 47.7 °F 39.7 °F 74% 30.37 in 10.0 mi Calm Calm - N/A   Clear
6:55 PM 46.4 °F 39.4 °F 77% 30.38 in 10.0 mi Calm Calm - N/A   Clear
7:15 PM 45.9 °F 39.6 °F 79% 30.38 in 10.0 mi Calm Calm - N/A   Clear
7:35 PM 42.8 °F 37.9 °F 83% 30.38 in 10.0 mi Calm Calm - N/A   Clear
7:55 PM 43.7 °F 38.8 °F 83% 30.38 in 10.0 mi Calm Calm - N/A   Clear
8:15 PM 43.7 °F 38.8 °F 83% 30.39 in 10.0 mi Calm Calm - N/A   Clear
8:55 PM 43.0 °F 38.8 °F 85% 30.40 in 10.0 mi Calm Calm - N/A   Clear
9:15 PM 42.3 °F 38.5 °F 86% 30.40 in 10.0 mi Calm Calm - N/A   Clear
9:35 PM 40.1 °F 37.2 °F 89% 30.40 in 10.0 mi Calm Calm - N/A   Clear
9:55 PM 40.6 °F 37.8 °F 89% 30.40 in 10.0 mi Calm Calm - N/A   Clear
10:15 PM 39.7 °F 37.4 °F 91% 30.40 in 10.0 mi Calm Calm - N/A   Clear
10:35 PM 40.3 °F 37.9 °F 91% 30.41 in 10.0 mi Calm Calm - N/A   Clear
10:55 PM 39.7 °F 37.4 °F 91% 30.41 in 10.0 mi Calm Calm - N/A   Clear
11:15 PM 39.7 °F 37.8 °F 93% 30.41 in 10.0 mi Calm Calm - N/A   Clear
11:35 PM 38.8 °F 37.2 °F 94% 30.41 in 5.0 mi Calm Calm - N/A   Clear
11:55 PM 38.8 °F 37.6 °F 95% 30.40 in 7.0 mi Calm Calm - N/A   Clear